When you browse on this site, cookies collect data to enhance your experience and personalize the content and advertising you see.
Visit our Privacy Policy to learn more. By continuing to use the site, you agree to this use of cookies and data.
  • In Hungary
  • List of Countries
  • For 7 days
  • Water Temperature
  • Weather Map
  • News
  • Weather Widgets
  • user-avatar
    Login

    Hourly Weather Brčko

    Today, 29 May, Friday

    Time Temperature Precipitation Wind Pressure Humidity
    00:00 +11°C° 0.5 mm 3 mps 757 mmHg 94%
    01:00 +10°C° 0.5 mm 3 mps 757 mmHg 95%
    02:00 +10°C° 0.2 mm 3 mps 757 mmHg 95%
    03:00 +10°C° 0.2 mm 3 mps 757 mmHg 95%
    04:00 +10°C° 0.2 mm 3 mps 757 mmHg 95%
    05:00 +10°C° 0.1 mm 3 mps 757 mmHg 94%
    06:00 +11°C° 0.1 mm 3 mps 757 mmHg 92%
    07:00 +12°C° 0.1 mm 3 mps 757 mmHg 91%
    08:00 +13°C° 0.1 mm 3 mps 757 mmHg 86%
    09:00 +15°C° 0.1 mm 4 mps 757 mmHg 82%
    10:00 +17°C° 0.1 mm 4 mps 757 mmHg 77%
    11:00 +18°C° 0.6 mm 4 mps 756 mmHg 76%
    12:00 +18°C° 0.6 mm 4 mps 756 mmHg 75%
    13:00 +19°C° 0.6 mm 4 mps 755 mmHg 75%
    14:00 +19°C° 0.8 mm 3 mps 755 mmHg 75%
    15:00 +19°C° 0.8 mm 3 mps 755 mmHg 76%
    16:00 +19°C° 0.8 mm 3 mps 755 mmHg 76%
    17:00 +17°C° 0.6 mm 2 mps 755 mmHg 80%
    18:00 +16°C° 0.6 mm 2 mps 754 mmHg 83%
    19:00 +15°C° 0.6 mm 2 mps 754 mmHg 87%
    20:00 +15°C° 0.9 mm 2 mps 755 mmHg 89%
    21:00 +14°C° 0.9 mm 2 mps 755 mmHg 91%
    22:00 +13°C° 0.9 mm 2 mps 755 mmHg 92%
    23:00 +13°C° 0.3 mm 2 mps 755 mmHg 93%

    Tomorrow, 30 May, Saturday

    Time Temperature Precipitation Wind Pressure Humidity
    00:00 +12°C° 0.3 mm 2 mps 755 mmHg 94%
    01:00 +10°C° 0.3 mm 2 mps 755 mmHg 94%
    02:00 +10°C° 0 mm 2 mps 755 mmHg 95%
    03:00 +10°C° 0 mm 2 mps 755 mmHg 95%
    04:00 +9°C° 0 mm 2 mps 754 mmHg 95%
    05:00 +10°C° 0 mm 2 mps 755 mmHg 94%
    06:00 +12°C° 0 mm 2 mps 755 mmHg 92%
    07:00 +13°C° 0 mm 2 mps 755 mmHg 91%
    08:00 +13°C° 0.1 mm 2 mps 754 mmHg 88%
    09:00 +13°C° 0.1 mm 3 mps 754 mmHg 85%
    10:00 +14°C° 0.1 mm 3 mps 754 mmHg 82%
    11:00 +14°C° 0.2 mm 3 mps 754 mmHg 83%
    12:00 +14°C° 0.2 mm 3 mps 754 mmHg 83%
    13:00 +14°C° 0.2 mm 3 mps 753 mmHg 84%
    14:00 +16°C° 0.1 mm 3 mps 753 mmHg 78%
    15:00 +16°C° 0.1 mm 2 mps 753 mmHg 72%
    16:00 +17°C° 0.1 mm 2 mps 753 mmHg 66%
    17:00 +16°C° 0.2 mm 2 mps 753 mmHg 72%
    18:00 +15°C° 0.2 mm 2 mps 753 mmHg 78%
    19:00 +13°C° 0.2 mm 2 mps 753 mmHg 85%
    20:00 +13°C° 0 mm 2 mps 753 mmHg 85%
    21:00 +12°C° 0 mm 2 mps 754 mmHg 86%
    22:00 +10°C° 0 mm 3 mps 754 mmHg 86%
    23:00 +9°C° 0 mm 3 mps 754 mmHg 87%

    Day after tomorrow, 31 May, Sunday

    Time Temperature Precipitation Wind Pressure Humidity
    00:00 +9°C° 0 mm 3 mps 753 mmHg 87%
    01:00 +8°C° 0 mm 3 mps 753 mmHg 88%
    02:00 +8°C° 0 mm 3 mps 753 mmHg 88%
    03:00 +8°C° 0 mm 3 mps 753 mmHg 88%
    04:00 +8°C° 0 mm 3 mps 753 mmHg 87%
    05:00 +9°C° 0 mm 3 mps 753 mmHg 85%
    06:00 +11°C° 0 mm 3 mps 753 mmHg 82%
    07:00 +12°C° 0 mm 3 mps 753 mmHg 80%
    08:00 +13°C° 0 mm 4 mps 753 mmHg 75%
    09:00 +14°C° 0 mm 4 mps 753 mmHg 71%
    10:00 +16°C° 0 mm 5 mps 753 mmHg 67%
    11:00 +17°C° 0.1 mm 4 mps 752 mmHg 65%
    12:00 +17°C° 0.1 mm 4 mps 752 mmHg 64%
    13:00 +18°C° 0.1 mm 4 mps 752 mmHg 62%
    14:00 +17°C° 0.4 mm 3 mps 752 mmHg 70%
    15:00 +14°C° 0.4 mm 3 mps 752 mmHg 78%
    16:00 +14°C° 0.4 mm 2 mps 752 mmHg 85%
    17:00 +13°C° 1.1 mm 2 mps 752 mmHg 89%
    18:00 +13°C° 1.1 mm 1 mps 752 mmHg 93%
    19:00 +12°C° 1.1 mm 1 mps 752 mmHg 97%
    20:00 +12°C° 0.9 mm 2 mps 752 mmHg 96%
    21:00 +12°C° 0.9 mm 2 mps 752 mmHg 96%
    22:00 +10°C° 0.9 mm 3 mps 752 mmHg 96%
    23:00 +11°C° 0.7 mm 3 mps 752 mmHg 96%

    1 June, Monday

    Time Temperature Precipitation Wind Pressure Humidity
    00:00 +11°C° 0.7 mm 4 mps 751 mmHg 96%
    01:00 +11°C° 0.7 mm 4 mps 751 mmHg 95%
    02:00 +11°C° 0.3 mm 4 mps 751 mmHg 96%
    03:00 +11°C° 0.3 mm 4 mps 751 mmHg 96%
    04:00 +11°C° 0.3 mm 3 mps 751 mmHg 97%
    05:00 +11°C° 0.2 mm 3 mps 751 mmHg 96%
    06:00 +11°C° 0.2 mm 3 mps 751 mmHg 95%
    07:00 +11°C° 0.2 mm 3 mps 752 mmHg 94%
    08:00 +12°C° 0.1 mm 3 mps 752 mmHg 91%
    09:00 +13°C° 0.1 mm 3 mps 752 mmHg 87%
    10:00 +13°C° 0.1 mm 3 mps 753 mmHg 84%
    11:00 +14°C° 0.1 mm 3 mps 752 mmHg 80%
    12:00 +16°C° 0.1 mm 3 mps 752 mmHg 76%
    13:00 +16°C° 0.1 mm 3 mps 752 mmHg 73%
    14:00 +17°C° 0 mm 3 mps 752 mmHg 72%
    15:00 +17°C° 0 mm 2 mps 752 mmHg 70%
    16:00 +17°C° 0 mm 2 mps 752 mmHg 69%
    17:00 +16°C° 0 mm 2 mps 752 mmHg 74%
    18:00 +15°C° 0 mm 1 mps 752 mmHg 78%
    19:00 +14°C° 0 mm 1 mps 752 mmHg 83%
    20:00 +13°C° 0 mm 1 mps 752 mmHg 85%
    21:00 +12°C° 0 mm 1 mps 752 mmHg 86%
    22:00 +12°C° 0 mm 2 mps 752 mmHg 88%
    23:00 +12°C° 0 mm 2 mps 752 mmHg 88%

    2 June, Tuesday

    Time Temperature Precipitation Wind Pressure Humidity
    00:00 +12°C° 0 mm 2 mps 752 mmHg 88%
    01:00 +12°C° 0 mm 2 mps 752 mmHg 88%
    02:00 +12°C° 0 mm 2 mps 752 mmHg 88%
    03:00 +12°C° 0 mm 2 mps 752 mmHg 88%
    04:00 +12°C° 0 mm 2 mps 752 mmHg 89%
    05:00 +13°C° 0 mm 2 mps 752 mmHg 87%
    06:00 +14°C° 0 mm 2 mps 752 mmHg 86%
    07:00 +14°C° 0 mm 3 mps 752 mmHg 85%
    08:00 +16°C° 0 mm 3 mps 752 mmHg 84%
    09:00 +16°C° 0 mm 2 mps 752 mmHg 84%
    10:00 +17°C° 0 mm 2 mps 752 mmHg 83%
    11:00 +18°C° 0.3 mm 2 mps 752 mmHg 81%
    12:00 +19°C° 0.3 mm 2 mps 751 mmHg 78%
    13:00 +20°C° 0.3 mm 3 mps 751 mmHg 76%
    14:00 +20°C° 0.3 mm 2 mps 751 mmHg 75%
    15:00 +20°C° 0.3 mm 2 mps 750 mmHg 73%
    16:00 +21°C° 0.3 mm 2 mps 750 mmHg 72%
    17:00 +19°C° 0.6 mm 2 mps 750 mmHg 78%
    18:00 +18°C° 0.6 mm 2 mps 750 mmHg 83%
    19:00 +18°C° 0.6 mm 1 mps 750 mmHg 89%
    20:00 +16°C° 0.7 mm 2 mps 750 mmHg 90%
    21:00 +15°C° 0.7 mm 2 mps 750 mmHg 92%
    22:00 +15°C° 0.7 mm 2 mps 750 mmHg 93%
    23:00 +14°C° 0.4 mm 2 mps 750 mmHg 94%

    3 June, Wednesday

    Time Temperature Precipitation Wind Pressure Humidity
    00:00 +13°C° 0.4 mm 2 mps 750 mmHg 95%
    01:00 +13°C° 0.4 mm 2 mps 750 mmHg 95%
    02:00 +12°C° 0 mm 2 mps 750 mmHg 95%
    03:00 +12°C° 0 mm 2 mps 750 mmHg 95%
    04:00 +10°C° 0 mm 2 mps 750 mmHg 95%
    05:00 +12°C° 0 mm 2 mps 750 mmHg 92%
    06:00 +13°C° 0 mm 2 mps 750 mmHg 89%
    07:00 +15°C° 0 mm 2 mps 751 mmHg 86%
    08:00 +16°C° 0 mm 2 mps 751 mmHg 80%
    09:00 +18°C° 0 mm 2 mps 750 mmHg 73%
    10:00 +19°C° 0 mm 3 mps 750 mmHg 66%
    11:00 +20°C° 0 mm 3 mps 750 mmHg 64%
    12:00 +21°C° 0 mm 3 mps 750 mmHg 61%
    13:00 +21°C° 0 mm 4 mps 750 mmHg 59%
    14:00 +21°C° 0 mm 3 mps 749 mmHg 59%
    15:00 +21°C° 0 mm 3 mps 749 mmHg 59%
    16:00 +21°C° 0 mm 3 mps 749 mmHg 59%
    17:00 +20°C° 0 mm 2 mps 749 mmHg 65%
    18:00 +18°C° 0 mm 2 mps 749 mmHg 72%
    19:00 +18°C° 0 mm 1 mps 750 mmHg 78%
    20:00 +16°C° 0 mm 1 mps 750 mmHg 82%
    21:00 +14°C° 0 mm 1 mps 750 mmHg 86%
    22:00 +13°C° 0 mm 1 mps 751 mmHg 89%
    23:00 +13°C° 0 mm 1 mps 751 mmHg 90%
    Show more